Regional Weather Roundup
Issued by NWS

Home | Current Version | Previous Version | Graphics & Text | Print | Product List | Glossary On
Versions: 1 2 3 4 5 6 7 8 9 10 11 12 13 14 15 16 17 18 19 20 21 22 23 24 25 26 27 28 29 30 31 32 33 34 35 36 37 38 39 40 41 42 43 44 45 46 47 48 49 50
000
ASUS43 KMKX 231611
RWRWI

WISCONSIN REGIONAL WEATHER ROUNDUP
NATIONAL WEATHER SERVICE MILWAUKEE/SULLIVAN WI
1100 AM CDT WED AUG 23 2017

NOTE: "FAIR" INDICATES FEW OR NO CLOUDS BELOW 12,000 FEET WITH NO
SIGNIFICANT WEATHER AND/OR OBSTRUCTIONS TO VISIBILITY.

WIZ001-002-006>008-014>016-023>028-231700-
NORTHWEST WISCONSIN

CITY           SKY/WX    TMP DP  RH WIND       PRES   REMARKS
SUPERIOR ARPT    N/A     63  51  65 NW7       30.09S
ASHLAND        PTSUNNY   65  51  60 N9        30.09R
HAYWARD        PTSUNNY   61  50  67 N8        30.09S
SIREN          PTSUNNY   65  50  58 N7        30.10S
CUMBERLAND     MOSUNNY   63  48  59 N12       30.10S
RICE LAKE      MOSUNNY   64  50  62 NW9       30.11S
CHETEK         PTSUNNY   62  53  71 N8        30.10S
LADYSMITH      PTSUNNY   64  52  64 N9        30.09F
EAU CLAIRE     MOSUNNY   67  51  56 NW10      30.08S
MENOMONIE      MOSUNNY   67  52  59 NW12G17   30.09F
NEW RICHMOND   SUNNY     66  51  58 N8G20     30.11S
OSCEOLA        MOSUNNY   65  51  61 CALM      30.14S
$$

WIZ003>005-009-010-017-018-231700-
NORTH CENTRAL WISCONSIN

CITY           SKY/WX    TMP DP  RH WIND       PRES   REMARKS
MANITOWISH WTR PTSUNNY   60  51  73 NW12      30.06R
ARBOR VITAE    PTSUNNY   60  49  68 NW10      30.06R
WOODRUFF       PTSUNNY   60  49  68 NW10      30.06R
RHINELANDER    PTSUNNY   60  50  69 NW9       30.06R
EAGLE RIVER    CLOUDY    59  47  64 NW9G18    30.04R
LAND O LAKES   DRIZZLE   56  49  75 NW7       30.07R
PHILLIPS       CLOUDY    60  52  75 NW5       30.07S
TOMAHAWK         N/A     61  50  67 NW7G17    30.07R
MEDFORD        PTSUNNY   61  51  68 NW9       30.07S
MERRILL        PTSUNNY   63  52  67 NW12      30.06S
$$

WIZ029-030-035-036-043>047-231700-
CENTRAL WISCONSIN

CITY           SKY/WX    TMP DP  RH WIND       PRES   REMARKS
WAUSAU         PTSUNNY   62  51  67 NW7       30.04S
MOSINEE        PTSUNNY   63  54  72 NW12G18   30.07S
MARSHFIELD     MOSUNNY   66  50  56 NW14      30.06S
STEVENS POINT  PTSUNNY   63  50  62 NW6       30.06R
WAUPACA        MOSUNNY   69  51  52 NW10G16   30.04R
WAUTOMA        PTSUNNY   68  51  54 NW16      30.05S
WISC RAPIDS    MOSUNNY   68  52  56 N14       30.07S
CAMP DOUGLAS   MOSUNNY   68  52  56 NW8       30.07S
$$

WIZ011>013-019>022-031-037>040-048>050-231700-
NORTHEAST WISCONSIN

CITY           SKY/WX    TMP DP  RH WIND       PRES   REMARKS
ANTIGO         MOSUNNY   62  51  65 NW15      30.04F
SHAWANO        PTSUNNY   66  53  62 NW3       30.02S
OCONTO         MOSUNNY   66  52  60 NW8       30.00F
STURGEON BAY   MOSUNNY   63  53  70 NW7       30.02R
GREEN BAY      MOSUNNY   67  57  70 NW12      30.02R
MANITOWOC      PTSUNNY   67  52  58 NW9       30.02S
APPLETON       PTSUNNY   64  48  55 NW9G17    30.02S
CLINTONVILLE   PTSUNNY   64  50  59 NW10      30.03S
OSHKOSH        MOSUNNY   67  53  61 NW10      30.03S
$$

WIZ032>034-041-042-053>061-231700-
SOUTHWEST WISCONSIN

CITY           SKY/WX    TMP DP  RH WIND       PRES   REMARKS
LA CROSSE      SUNNY     71  54  54 W7        30.08S
SPARTA         SUNNY     67  53  59 NW10G16   30.09S
VIROQUA        MOSUNNY   66  56  68 NW8       30.09S
BOSCOBEL       SUNNY     72  53  51 NW8       30.09R
PRAIRIE DU CHI SUNNY     70  50  49 NW7       30.09S
PLATTEVILLE    SUNNY     68  57  68 NW6       30.10S
$$

WIZ056-057-062-063-064-067-068-231700-
SOUTH CENTRAL WISCONSIN

CITY           SKY/WX    TMP DP  RH WIND       PRES   REMARKS
REEDSBURG      MOSUNNY   68  52  56 NW10G20   30.06F
BARABOO/DELLS  SUNNY     68  48  48 NW13G18   30.07S
LONE ROCK      MOSUNNY   71  56  58 NW9       30.07S
MINERAL POINT  SUNNY     70  54  56 NW7       30.09S
MADISON        MOSUNNY   68  52  56 N13       30.06R
MIDDLETON      MOSUNNY   69  54  59 NW12G20   30.07S
WATERTOWN      SUNNY     67  55  64 NW9G16    30.05R
MONROE         SUNNY     68  52  56 NW7       30.08S
JANESVILLE     SUNNY     68  55  64 W8        30.05
$$

WIZ051-052-058>065-066-070>072-231700-
SOUTHEAST WISCONSIN

CITY           SKY/WX    TMP DP  RH WIND       PRES   REMARKS
MILWAUKEE      MOSUNNY   71  51  49 NW10      30.03R
WAUKESHA       MOSUNNY   66  52  59 NW9       30.05S
MILWAUKEE/TIMM PTSUNNY   68  50  52 NW12      30.04R
RACINE         SUNNY     71  52  50 NW14      30.05R
KENOSHA        MOSUNNY   70  53  54 NW12      30.04S
FOND DU LAC    MOSUNNY   68  51  54 NW10      30.04S
SHEBOYGAN      SUNNY     68  54  60 NW8       30.02S
WEST BEND      MOSUNNY   64  52  63 NW9G17    30.04R
JUNEAU         MOSUNNY   66  54  65 W6        30.06R
$$

LSZ147-162-231700-
LAKE SUPERIOR

STATION/POSITION TIME  TEMP    WIND        PRES    WAVE
                       AIR SEA DIR/SP/G            HT/PER
                 (UTC) (F)     (DEG/KT/KT) (MB)    (FT/S)
W MID LAKE BUOY  1550   57 59  310/ 12/ 14 1017.8R   2/ 4
DEVILS ISLAND    1600   57      10/  7/  8 1019.1R
SAXON HARBOR     1540   61     350/ 12/ 18 1017.9R
$$

LMZ867-665-643>646-231700-
LAKE MICHIGAN

STATION/POSITION TIME  TEMP    WIND        PRES    WAVE
                       AIR SEA DIR/SP/G            HT/PER
                 (UTC) (F)     (DEG/KT/KT) (MB)    (FT/S)
S GREEN BAY BUOY 1600   64 70  340/ 10/ 12 1015.9
N MID LAKE BUOY  1550   60 66  310/ 12/ 17 1015.5R   2/ 4
NORTHPORT PIER   1540   63     320/ 12/ 18 1015.2S
KEWAUNEE LAKESHO 1548   65     320/  5/ 13 1015.2R
SHEBOYGAN LAKESH 1600   64      10/  8/  9 1016.4R
PORT WASHINGTON  1530   68     350/  6/ 12 1017.3S
ATWATER BUOY     1509   66 68  330/  8/ 10 1016.9
MILWAUKEE LAKESH 1550   67     300/ 10/ 12   N/A
S MID LAKE BUOY  1550   65 71  350/ 14/ 16 1016.7R   4/ 5
KENOSHA   LAKESH 1600   67     330/ 12/ 16 1016.9
$$

TC  - TEMPERATURE IN CELSIUS
VSB - VISIBILITY IN STATUTE MILES
WCI - WIND CHILL INDEX
HX  - HEAT INDEX




USA.gov is the U.S. government's official web portal to all federal, state and local government web resources and services.